Location: Les Salelles
(44.4192°N, 4.1044°E)
Time: 09:38:21
(UTC+00:00)

Cosmos 1354 Rocket - Pass Details

Date: 20 January 2021
Orbit: 764 x 783 km, 74.0° (Epoch: 01 March)

Event Time Altitude Azimuth Distance (km) Brightness Sun altitude
Rises 17:17:32 0° 207° (SSW) 3,249 8.1 -7.5°
Reaches altitude 10° 17:19:55 10° 210° (SSW) 2,328 7.3 -7.9°
Maximum altitude 17:25:11 67° 292° (WNW) 847 4.4 -8.8°
Drops below altitude 10° 17:30:31 10° 16° (NNE) 2,349 6.2 -9.7°
Sets 17:32:56 0° 19° (NNE) 3,282 6.9 -10.1°
